Wahpeton, MN

12:08 AM CDT on July 21, 2017 (GMT -0500)
Stern

Weather History for KBWP - May, 2014

Change the Weather History Date:

Thursday, May 8, 2014

  Actual Average (KFFM) Record (KFFM)
Temperature  
Mean Temperature 45 °F -  
Max Temperature 48 °F 63 °F 89 °F (1992)
Min Temperature 42 °F 42 °F 27 °F (1955)
Degree Days  
Heating Degree Days 20    
Moisture  
Dew Point 43 °F    
Average Humidity 92    
Maximum Humidity 93    
Minimum Humidity 87    
Precipitation  
Precipitation 0.20 in - - ()
Sea Level Pressure  
Sea Level Pressure 29.72 in    
Wind  
Wind Speed 14 mph (North)    
Max Wind Speed 26 mph    
Max Gust Speed 31 mph    
Visibility 5 miles    
Events      
Averages and records for this station are not official NWS values.
T = Trace of Precipitation, MM = Missing Value Source: NWS Daily Summary

Daily Weather History Graph

Daily Weather History Graph

Search for Another Location

Airport or City:

Trip Planner

Search our weather history database for the weather conditions in past years. The results will help you decide how hot, cold, wet, or windy it might be!

Date:

Astronomy

May. 08, 2014 Rise Set
Actual Time 6:02 AM CDT 8:44 PM CDT
Civil Twilight 5:28 AM CDT 9:18 PM CDT
Nautical Twilight 4:44 AM CDT 10:02 PM CDT
Astronomical Twilight 3:54 AM CDT 10:53 PM CDT
Moon 2:25 PM CDT (5/8) 2:55 AM CDT (5/8)
Length of Visible Light 15h 50m
Length of Day
14h 41m
Waxing Gibbous, 65% of the Moon is Illuminated
May 8
Waxing Gibbous
May 14
Full
May 21
Last Quarter
May 28
New
Jun 5
First Quarter

Hourly Weather History & Observations

Time (CDT) Temp. Windchill Dew Point Humidity Pressure Visibility Wind Dir Wind Speed Gust Speed Precip Events Conditions
12:10 AM 46.4 °F 41.1 °F 42.8 °F 87% 29.76 in 10.0 mi North 11.5 mph - N/A   Clear
12:30 AM 44.6 °F 39.7 °F 42.8 °F 93% 29.76 in 10.0 mi North 9.2 mph - N/A   Clear
12:50 AM 44.6 °F 39.2 °F 42.8 °F 93% 29.77 in 10.0 mi North 10.4 mph - N/A   Scattered Clouds
1:10 AM 44.6 °F 39.7 °F 42.8 °F 93% 29.78 in 7.0 mi North 9.2 mph - N/A   Mostly Cloudy
1:30 AM 44.6 °F 38.4 °F 42.8 °F 93% 29.76 in 2.5 mi North 12.7 mph 23.0 mph N/A   Overcast
1:50 AM 44.6 °F 37.8 °F 42.8 °F 93% 29.75 in 5.0 mi North 15.0 mph 18.4 mph N/A   Overcast
2:10 AM 44.6 °F 37.8 °F 42.8 °F 93% 29.76 in 5.0 mi North 15.0 mph - N/A   Overcast
2:30 AM 44.6 °F 38.1 °F 42.8 °F 93% 29.78 in 3.0 mi NNW 13.8 mph 19.6 mph N/A   Overcast
2:50 AM 44.6 °F 38.1 °F 42.8 °F 93% 29.80 in 7.0 mi NNW 13.8 mph - N/A   Overcast
3:10 AM 44.6 °F 38.4 °F 42.8 °F 93% 29.82 in 1.8 mi NW 12.7 mph - N/A   Overcast
3:30 AM 44.6 °F 39.2 °F 42.8 °F 93% 29.82 in 4.0 mi NW 10.4 mph - N/A   Overcast
3:50 AM 44.6 °F 40.2 °F 42.8 °F 93% 29.80 in 4.0 mi NNW 8.1 mph - N/A   Overcast
4:10 AM 44.6 °F 37.4 °F 42.8 °F 93% 29.74 in 4.0 mi North 16.1 mph - N/A   Overcast
4:30 AM 44.6 °F 36.4 °F 42.8 °F 93% 29.70 in 3.0 mi North 20.7 mph 27.6 mph N/A   Overcast
4:50 AM 44.6 °F 35.3 °F 42.8 °F 93% 29.70 in 2.5 mi North 26.5 mph 31.1 mph N/A   Overcast
5:10 AM 44.6 °F 37.4 °F 42.8 °F 93% 29.74 in 3.0 mi North 16.1 mph 26.5 mph N/A   Overcast
5:30 AM 44.6 °F 36.4 °F 42.8 °F 93% 29.74 in 3.0 mi North 20.7 mph 26.5 mph N/A   Overcast
5:50 AM 44.6 °F 37.8 °F 42.8 °F 93% 29.76 in 3.0 mi North 15.0 mph 21.9 mph N/A   Overcast
6:10 AM 44.6 °F 38.1 °F 41.0 °F 87% 29.79 in 2.0 mi North 13.8 mph 20.7 mph N/A   Overcast
6:30 AM 44.6 °F 36.6 °F 42.8 °F 93% 29.79 in 5.0 mi North 19.6 mph 26.5 mph N/A   Overcast
6:50 AM 44.6 °F 36.9 °F 42.8 °F 93% 29.77 in 2.5 mi North 18.4 mph - N/A   Overcast
7:10 AM 44.6 °F 37.8 °F 42.8 °F 93% 29.78 in 4.0 mi North 15.0 mph 25.3 mph N/A   Overcast
7:30 AM 44.6 °F 37.8 °F 42.8 °F 93% 29.77 in 5.0 mi North 15.0 mph 23.0 mph N/A   Overcast
7:50 AM 44.6 °F 38.1 °F 42.8 °F 93% 29.78 in 1.5 mi North 13.8 mph 18.4 mph N/A   Overcast
8:10 AM 44.6 °F 39.2 °F 42.8 °F 93% 29.80 in 1.2 mi North 10.4 mph - N/A   Overcast
8:30 AM 44.6 °F 38.8 °F 42.8 °F 93% 29.81 in 1.0 mi North 11.5 mph 16.1 mph N/A   Overcast
8:50 AM 44.6 °F 39.2 °F 42.8 °F 93% 29.80 in 0.8 mi North 10.4 mph - N/A   Overcast
9:10 AM 44.6 °F 36.6 °F 42.8 °F 93% 29.74 in 0.8 mi NNE 19.6 mph - N/A   Overcast
9:30 AM 42.8 °F 34.5 °F 41.0 °F 93% 29.72 in 0.5 mi North 18.4 mph 25.3 mph N/A   Overcast
9:50 AM 44.6 °F 37.8 °F 42.8 °F 93% 29.75 in 0.8 mi North 15.0 mph 20.7 mph N/A   Overcast
10:10 AM 44.6 °F 37.8 °F 42.8 °F 93% 29.75 in 0.8 mi North 15.0 mph 19.6 mph N/A   Overcast
10:30 AM 44.6 °F 36.9 °F 42.8 °F 93% 29.74 in 2.0 mi North 18.4 mph 21.9 mph N/A   Overcast
10:50 AM 44.6 °F 37.8 °F 42.8 °F 93% 29.75 in 4.0 mi North 15.0 mph 24.2 mph N/A   Overcast
11:10 AM 44.6 °F 37.2 °F 42.8 °F 93% 29.75 in 4.0 mi North 17.3 mph 24.2 mph N/A   Overcast
11:30 AM 44.6 °F 37.8 °F 42.8 °F 93% 29.77 in 7.0 mi North 15.0 mph 19.6 mph N/A   Overcast
11:50 AM 46.4 °F 41.5 °F 42.8 °F 87% 29.78 in 7.0 mi North 10.4 mph - N/A   Overcast
12:10 PM 46.4 °F 40.7 °F 42.8 °F 87% 29.78 in 7.0 mi North 12.7 mph - N/A   Overcast
12:30 PM 46.4 °F 40.4 °F 42.8 °F 87% 29.76 in 10.0 mi North 13.8 mph - N/A   Overcast
12:50 PM 44.6 °F 37.4 °F 42.8 °F 93% 29.74 in 5.0 mi North 16.1 mph 20.7 mph N/A   Overcast
1:10 PM 44.6 °F 38.8 °F 42.8 °F 93% 29.76 in 4.0 mi North 11.5 mph 18.4 mph 0.02 in   Overcast
1:30 PM 46.4 °F 39.2 °F 44.6 °F 93% 29.73 in 4.0 mi North 18.4 mph 23.0 mph 0.11 in   Overcast
1:50 PM 48.2 °F - 46.4 °F 93% 29.71 in 7.0 mi NNE 19.6 mph 26.5 mph 0.11 in   Overcast
2:10 PM 48.2 °F - 44.6 °F 87% 29.69 in 10.0 mi North 18.4 mph 25.3 mph N/A   Overcast
2:30 PM 46.4 °F 39.8 °F 44.6 °F 93% 29.69 in 10.0 mi NNE 16.1 mph 20.7 mph N/A   Overcast
2:50 PM 46.4 °F 41.9 °F 44.6 °F 93% 29.74 in 10.0 mi North 9.2 mph 13.8 mph N/A   Overcast
3:10 PM 46.4 °F 40.4 °F 44.6 °F 93% 29.72 in 4.0 mi North 13.8 mph 19.6 mph 0.01 in   Overcast
3:30 PM 48.2 °F - 44.6 °F 87% 29.68 in 7.0 mi North 12.7 mph 28.8 mph 0.02 in   Mostly Cloudy
3:50 PM 48.2 °F - 44.6 °F 87% 29.67 in 10.0 mi North 15.0 mph 19.6 mph 0.03 in   Overcast
4:10 PM 48.2 °F - 44.6 °F 87% 29.66 in 10.0 mi North 15.0 mph 20.7 mph N/A   Overcast
4:30 PM 46.4 °F 39.5 °F 44.6 °F 93% 29.67 in 10.0 mi North 17.3 mph - N/A   Overcast
4:50 PM 46.4 °F 39.5 °F 44.6 °F 93% 29.66 in 10.0 mi North 17.3 mph 23.0 mph N/A   Overcast
5:10 PM 46.4 °F 39.8 °F 44.6 °F 93% 29.67 in 10.0 mi North 16.1 mph 26.5 mph N/A   Overcast
5:50 PM 46.4 °F 39.5 °F 44.6 °F 93% 29.65 in 10.0 mi North 17.3 mph 23.0 mph N/A   Overcast
6:10 PM 46.4 °F 39.0 °F 44.6 °F 93% 29.63 in 10.0 mi North 19.6 mph 25.3 mph N/A   Overcast
6:30 PM 46.4 °F 40.1 °F 44.6 °F 93% 29.64 in 10.0 mi North 15.0 mph - N/A   Overcast
6:50 PM 46.4 °F 39.2 °F 44.6 °F 93% 29.64 in 10.0 mi North 18.4 mph 23.0 mph N/A   Overcast
7:10 PM 46.4 °F 40.1 °F 42.8 °F 87% 29.64 in 10.0 mi North 15.0 mph - N/A   Overcast
7:30 PM 46.4 °F 40.1 °F 42.8 °F 87% 29.62 in 10.0 mi North 15.0 mph 23.0 mph N/A   Overcast
7:50 PM 46.4 °F 40.7 °F 42.8 °F 87% 29.63 in 7.0 mi NNW 12.7 mph 17.3 mph N/A   Overcast
8:10 PM 46.4 °F 40.7 °F 42.8 °F 87% 29.64 in 7.0 mi NNW 12.7 mph - N/A   Overcast
8:30 PM 46.4 °F 40.1 °F 42.8 °F 87% 29.63 in 5.0 mi North 15.0 mph - N/A   Overcast
8:50 PM 46.4 °F 40.1 °F 42.8 °F 87% 29.64 in 3.0 mi North 15.0 mph - 0.01 in   Overcast
9:10 PM 44.6 °F 36.6 °F 42.8 °F 93% 29.63 in 4.0 mi North 19.6 mph 24.2 mph N/A   Overcast
9:30 PM 44.6 °F 37.8 °F 42.8 °F 93% 29.64 in 4.0 mi North 15.0 mph 24.2 mph N/A   Overcast
9:50 PM 44.6 °F 38.1 °F 42.8 °F 93% 29.65 in 4.0 mi NNW 13.8 mph 18.4 mph N/A   Overcast
10:10 PM 44.6 °F 37.8 °F 42.8 °F 93% 29.64 in 4.0 mi North 15.0 mph 19.6 mph N/A   Overcast
10:30 PM 44.6 °F 37.4 °F 42.8 °F 93% 29.64 in 4.0 mi NNW 16.1 mph 21.9 mph 0.02 in   Overcast
10:50 PM 44.6 °F 36.6 °F 42.8 °F 93% 29.64 in 5.0 mi NNW 19.6 mph - 0.02 in   Overcast
11:10 PM 44.6 °F 37.2 °F 42.8 °F 93% 29.64 in 5.0 mi North 17.3 mph 24.2 mph N/A   Overcast
11:30 PM 44.6 °F 36.1 °F 41.0 °F 87% 29.63 in 5.0 mi North 21.9 mph 27.6 mph N/A   Overcast
11:50 PM 44.6 °F 36.9 °F 41.0 °F 87% 29.62 in 3.0 mi North 18.4 mph 24.2 mph 0.03 in   Overcast